| time (UTC) | temp F | wind direction | speed MPH | gust MPH | rain 1hr in | rain 24hr in | rain mn in | humidity % | barometer mb |
| 20260508090058 | 62 | 188 | 3.0 | 9.0 | 0.00 | 0.00 | 0.00 | 68 | 1011.7 |
| 20260508084545 | 61 | 243 | 3.0 | 8.0 | 0.00 | 0.00 | 0.00 | 70 | 1011.7 |
| 20260508083044 | 60 | 245 | 1.0 | 6.0 | 0.00 | 0.00 | 0.00 | 72 | 1011.6 |
| 20260508081547 | 58 | 0 | 1.0 | 5.0 | 0.00 | 0.00 | 0.00 | 77 | 1011.5 |
| 20260508080047 | 56 | 223 | 3.0 | 6.0 | 0.00 | 0.00 | 0.00 | 77 | 1011.5 |
| 20260508074548 | 56 | 230 | 1.0 | 5.0 | 0.00 | 0.00 | 0.00 | 79 | 1011.2 |
| 20260508073049 | 56 | 231 | 0.0 | 6.0 | 0.00 | 0.00 | 0.00 | 78 | 1011.2 |
| 20260508071545 | 57 | 225 | 3.0 | 6.0 | 0.00 | 0.00 | 0.00 | 76 | 1011.3 |
| 20260508070040 | 55 | 213 | 2.0 | 4.0 | 0.00 | 0.00 | 0.00 | 79 | 1011.3 |
| 20260508064550 | 55 | 250 | 2.0 | 5.0 | 0.00 | 0.00 | 0.00 | 79 | 1011.2 |
| 20260508063113 | 55 | 0 | 0.0 | 2.0 | 0.00 | 0.00 | 0.00 | 80 | 1011.1 |
| 20260508061543 | 54 | 231 | 0.0 | 1.0 | 0.00 | 0.00 | 0.00 | 82 | 1010.8 |
| 20260508060049 | 54 | 0 | 2.0 | 3.0 | 0.00 | 0.00 | 0.00 | 82 | 1010.6 |
| 20260508054549 | 54 | 236 | 2.0 | 4.0 | 0.00 | 0.00 | 0.00 | 82 | 1010.6 |
| 20260508053053 | 54 | 0 | 0.0 | 1.0 | 0.00 | 0.00 | 0.00 | 82 | 1010.1 |
| 20260508051609 | 54 | 231 | 0.0 | 3.0 | 0.00 | 0.00 | 0.00 | 82 | 1010.0 |
| 20260508050051 | 54 | 236 | 1.0 | 3.0 | 0.00 | 0.00 | 0.00 | 82 | 1010.0 |
| 20260508044551 | 55 | 0 | 0.0 | 1.0 | 0.00 | 0.00 | 0.00 | 82 | 1009.7 |
| 20260508043049 | 55 | 231 | 0.0 | 4.0 | 0.00 | 0.00 | 0.00 | 82 | 1010.1 |
| 20260508041551 | 55 | 193 | 1.0 | 4.0 | 0.00 | 0.00 | 0.00 | 82 | 1010.3 |
| 20260508040047 | 55 | 228 | 0.0 | 2.0 | 0.00 | 0.00 | 0.00 | 81 | 1010.0 |
| 20260508034552 | 55 | 224 | 2.0 | 4.0 | 0.00 | 0.00 | 0.00 | 81 | 1010.2 |
| 20260508033049 | 55 | 210 | 3.0 | 5.0 | 0.00 | 0.00 | 0.00 | 81 | 1010.1 |
| 20260508031551 | 55 | 262 | 2.0 | 5.0 | 0.00 | 0.00 | 0.00 | 80 | 1010.1 |
| 20260508030048 | 55 | 226 | 2.0 | 5.0 | 0.00 | 0.00 | 0.00 | 80 | 1010.1 |
| 20260508024546 | 56 | 227 | 1.0 | 4.0 | 0.00 | 0.00 | 0.00 | 79 | 1010.0 |
| 20260508023045 | 56 | 232 | 2.0 | 5.0 | 0.00 | 0.00 | 0.00 | 78 | 1010.0 |
| 20260508021550 | 56 | 219 | 2.0 | 4.0 | 0.00 | 0.00 | 0.00 | 78 | 1010.1 |
| 20260508020043 | 56 | 244 | 2.0 | 5.0 | 0.00 | 0.00 | 0.00 | 78 | 1010.3 |
| 20260508014549 | 56 | 230 | 2.0 | 5.0 | 0.00 | 0.00 | 0.00 | 78 | 1010.3 |
| 20260508013041 | 57 | 233 | 2.0 | 6.0 | 0.00 | 0.00 | 0.00 | 77 | 1010.3 |
| 20260508011549 | 57 | 225 | 2.0 | 4.0 | 0.00 | 0.00 | 0.00 | 74 | 1010.6 |
| 20260508010058 | 58 | 256 | 0.0 | 3.0 | 0.00 | 0.00 | 0.00 | 71 | 1010.3 |
| 20260508004544 | 58 | 268 | 0.0 | 3.0 | 0.00 | 0.00 | 0.00 | 71 | 1010.2 |
| 20260508003044 | 58 | 0 | 0.0 | 1.0 | 0.00 | 0.00 | 0.00 | 71 | 1010.4 |
| 20260508001545 | 59 | 0 | 0.0 | 1.0 | 0.00 | 0.00 | 0.00 | 71 | 1010.4 |
| 20260508000048 | 59 | 262 | 1.0 | 3.0 | 0.00 | 0.00 | 0.00 | 72 | 1010.5 |
| 20260507234547 | 59 | 256 | 2.0 | 3.0 | 0.00 | 0.00 | 0.00 | 71 | 1010.5 |
| 20260507233045 | 60 | 254 | 0.0 | 3.0 | 0.00 | 0.00 | 0.00 | 71 | 1010.8 |
| 20260507231544 | 60 | 243 | 0.0 | 3.0 | 0.00 | 0.00 | 0.00 | 70 | 1010.9 |
| 20260507230058 | 60 | 225 | 1.0 | 6.0 | 0.00 | 0.00 | 0.00 | 70 | 1011.2 |
| 20260507224544 | 60 | 247 | 3.0 | 6.0 | 0.00 | 0.00 | 0.00 | 69 | 1011.1 |
| 20260507223133 | 60 | 257 | 1.0 | 6.0 | 0.00 | 0.00 | 0.00 | 69 | 1011.2 |
| 20260507221547 | 61 | 257 | 4.0 | 8.0 | 0.00 | 0.00 | 0.00 | 68 | 1011.1 |
| 20260507220042 | 61 | 260 | 4.0 | 10.0 | 0.00 | 0.00 | 0.00 | 67 | 1011.3 |
| 20260507214551 | 62 | 240 | 3.0 | 10.0 | 0.00 | 0.00 | 0.00 | 66 | 1011.2 |
| 20260507213042 | 62 | 230 | 3.0 | 7.0 | 0.00 | 0.00 | 0.00 | 66 | 1011.0 |
| 20260507211553 | 62 | 242 | 2.0 | 8.0 | 0.00 | 0.00 | 0.00 | 65 | 1010.7 |
| 20260507210055 | 63 | 200 | 1.0 | 8.0 | 0.00 | 0.00 | 0.00 | 63 | 1010.5 |
| 20260507204549 | 64 | 253 | 2.0 | 11.0 | 0.00 | 0.00 | 0.00 | 60 | 1010.3 |
| 20260507203054 | 65 | 236 | 3.0 | 11.0 | 0.00 | 0.00 | 0.00 | 57 | 1010.0 |
| 20260507201552 | 66 | 284 | 4.0 | 11.0 | 0.00 | 0.00 | 0.00 | 53 | 1009.7 |
| 20260507200054 | 67 | 242 | 2.0 | 7.0 | 0.00 | 0.00 | 0.00 | 51 | 1009.4 |
| 20260507194549 | 68 | 253 | 2.0 | 8.0 | 0.00 | 0.00 | 0.00 | 50 | 1009.3 |
| 20260507193051 | 68 | 249 | 2.0 | 8.0 | 0.00 | 0.00 | 0.00 | 48 | 1009.1 |
| 20260507191549 | 69 | 238 | 0.0 | 6.0 | 0.00 | 0.00 | 0.00 | 48 | 1008.9 |
| 20260507190050 | 70 | 178 | 2.0 | 5.0 | 0.00 | 0.00 | 0.00 | 47 | 1008.8 |
| 20260507184543 | 70 | 222 | 0.0 | 5.0 | 0.00 | 0.00 | 0.00 | 47 | 1008.5 |
| 20260507183042 | 71 | 219 | 1.0 | 7.0 | 0.00 | 0.00 | 0.00 | 47 | 1008.3 |
| 20260507181543 | 71 | 217 | 2.0 | 9.0 | 0.00 | 0.00 | 0.00 | 46 | 1008.3 |
| 20260507180041 | 72 | 236 | 2.0 | 11.0 | 0.00 | 0.00 | 0.00 | 46 | 1008.1 |
| 20260507174554 | 73 | 0 | 0.0 | 3.0 | 0.00 | 0.00 | 0.00 | 46 | 1008.1 |
| 20260507173044 | 72 | 0 | 0.0 | 4.0 | 0.00 | 0.00 | 0.00 | 46 | 1008.1 |
| 20260507171554 | 73 | 226 | 2.0 | 10.0 | 0.00 | 0.00 | 0.00 | 45 | 1008.1 |
| 20260507170048 | 73 | 270 | 3.0 | 7.0 | 0.00 | 0.00 | 0.00 | 42 | 1008.0 |
| 20260507164541 | 74 | 243 | 2.0 | 7.0 | 0.00 | 0.00 | 0.00 | 45 | 1008.0 |
| 20260507163047 | 73 | 213 | 1.0 | 6.0 | 0.00 | 0.00 | 0.00 | 39 | 1008.0 |
| 20260507161553 | 73 | 266 | 4.0 | 11.0 | 0.00 | 0.00 | 0.00 | 41 | 1008.1 |
| 20260507160044 | 73 | 237 | 1.0 | 6.0 | 0.00 | 0.00 | 0.00 | 41 | 1008.2 |
| 20260507154545 | 73 | 232 | 3.0 | 8.0 | 0.00 | 0.00 | 0.00 | 41 | 1008.2 |
| 20260507153052 | 75 | 279 | 2.0 | 6.0 | 0.00 | 0.00 | 0.00 | 39 | 1008.3 |
| 20260507151540 | 74 | 253 | 5.0 | 10.0 | 0.00 | 0.00 | 0.00 | 40 | 1008.2 |
| 20260507150052 | 73 | 184 | 4.0 | 8.0 | 0.00 | 0.00 | 0.00 | 41 | 1008.6 |
| 20260507144545 | 74 | 232 | 4.0 | 10.0 | 0.00 | 0.00 | 0.00 | 40 | 1008.7 |
| 20260507143050 | 74 | 215 | 3.0 | 9.0 | 0.00 | 0.00 | 0.00 | 42 | 1008.9 |
| 20260507141542 | 75 | 224 | 1.0 | 8.0 | 0.00 | 0.00 | 0.00 | 40 | 1008.9 |
| 20260507140046 | 74 | 288 | 1.0 | 7.0 | 0.00 | 0.00 | 0.00 | 41 | 1009.1 |
| 20260507134553 | 74 | 231 | 6.0 | 11.0 | 0.00 | 0.00 | 0.00 | 41 | 1009.2 |
| 20260507133051 | 74 | 223 | 3.0 | 11.0 | 0.00 | 0.00 | 0.00 | 40 | 1009.3 |
| 20260507131545 | 73 | 103 | 4.0 | 10.0 | 0.00 | 0.00 | 0.00 | 42 | 1009.4 |
| 20260507130057 | 74 | 231 | 3.0 | 11.0 | 0.00 | 0.00 | 0.00 | 42 | 1009.6 |
| 20260507124559 | 73 | 105 | 1.0 | 6.0 | 0.00 | 0.00 | 0.00 | 45 | 1009.7 |
| 20260507123104 | 73 | 245 | 5.0 | 11.0 | 0.00 | 0.00 | 0.00 | 44 | 1010.0 |
| 20260507121545 | 72 | 243 | 5.0 | 11.0 | 0.00 | 0.00 | 0.00 | 44 | 1010.3 |
| 20260507120048 | 72 | 254 | 3.0 | 8.0 | 0.00 | 0.00 | 0.00 | 43 | 1010.4 |
| 20260507114547 | 72 | 244 | 2.0 | 6.0 | 0.00 | 0.00 | 0.00 | 44 | 1010.6 |
| 20260507113044 | 74 | 74 | 0.0 | 4.0 | 0.00 | 0.00 | 0.00 | 46 | 1010.7 |
| 20260507111544 | 71 | 221 | 0.0 | 9.0 | 0.00 | 0.00 | 0.00 | 50 | 1010.9 |
| 20260507110042 | 70 | 250 | 2.0 | 7.0 | 0.00 | 0.00 | 0.00 | 50 | 1010.9 |
| 20260507104554 | 69 | 259 | 1.0 | 8.0 | 0.00 | 0.00 | 0.00 | 52 | 1010.9 |
| 20260507103046 | 67 | 272 | 3.0 | 9.0 | 0.00 | 0.00 | 0.00 | 58 | 1011.0 |
| 20260507101556 | 65 | 241 | 3.0 | 6.0 | 0.00 | 0.00 | 0.00 | 61 | 1011.0 |
| 20260507100054 | 66 | 226 | 3.0 | 5.0 | 0.00 | 0.00 | 0.00 | 61 | 1011.0 |
| 20260507094543 | 64 | 116 | 1.0 | 8.0 | 0.00 | 0.00 | 0.00 | 64 | 1011.0 |
| 20260507093042 | 65 | 225 | 2.0 | 7.0 | 0.00 | 0.00 | 0.00 | 65 | 1011.1 |
| 20260507091550 | 63 | 239 | 3.0 | 8.0 | 0.00 | 0.00 | 0.00 | 66 | 1011.1 |